Maple Lake, MN

4:36 PM CST on January 22, 2017 (GMT -0600)
Maple Lake Municipal

Weather History for KMGG - January, 2013

Change the Weather History Date:

Friday, January 25, 2013

  Actual Average (KSTC) Record (KSTC)
Temperature  
Mean Temperature 8 °F -  
Max Temperature 16 °F 18 °F 53 °F (1944)
Min Temperature 1 °F -1 °F -37 °F (1904)
Degree Days  
Heating Degree Days 56    
Moisture  
Dew Point 3 °F    
Average Humidity 71    
Maximum Humidity 80    
Minimum Humidity 62    
Precipitation  
Precipitation 0.00 in - - ()
Sea Level Pressure  
Sea Level Pressure 30.08 in    
Wind  
Wind Speed 11 mph (West)    
Max Wind Speed 23 mph    
Max Gust Speed 32 mph    
Visibility 10 miles    
Events Snow    
Averages and records for this station are not official NWS values.
T = Trace of Precipitation, MM = Missing Value Source: NWS Daily Summary

Daily Weather History Graph

Daily Weather History Graph

Search for Another Location

Airport or City:

Trip Planner

Search our weather history database for the weather conditions in past years. The results will help you decide how hot, cold, wet, or windy it might be!

Date:

Astronomy

Jan. 25, 2013 Rise Set
Actual Time 7:43 AM CST 5:13 PM CST
Civil Twilight 7:11 AM CST 5:45 PM CST
Nautical Twilight 6:35 AM CST 6:21 PM CST
Astronomical Twilight 6:00 AM CST 6:56 PM CST
Moon 4:11 PM CST (1/25) 6:24 AM CST (1/25)
Length of Visible Light 10h 34m
Length of Day
9h 30m
Waxing Gibbous, 98% of the Moon is Illuminated
Jan 25
Waxing Gibbous
Jan 26
Full
Feb 3
Last Quarter
Feb 10
New
Feb 17
First Quarter

Hourly Weather History & Observations

Time (CST) Temp. Windchill Dew Point Humidity Pressure Visibility Wind Dir Wind Speed Gust Speed Precip Events Conditions
12:15 AM 12.6 °F 3.4 °F 3.2 °F 66% 30.12 in 10.0 mi South 5.8 mph - N/A Snow Light Snow
12:35 AM 13.5 °F 0.5 °F 2.5 °F 62% 30.10 in 10.0 mi South 10.4 mph 16.1 mph N/A   Overcast
12:56 AM 13.6 °F 3.5 °F 3.9 °F 65% 30.09 in 10.0 mi South 6.9 mph - N/A   Overcast
1:15 AM 13.5 °F -0.2 °F 5.5 °F 71% 30.08 in 10.0 mi South 11.5 mph 18.4 mph N/A   Overcast
1:56 AM 13.1 °F 2.8 °F 7.3 °F 78% 30.06 in 10.0 mi South 6.9 mph 16.1 mph N/A   Overcast
2:15 AM 13.1 °F 0.1 °F 7.5 °F 78% 30.05 in 10.0 mi South 10.4 mph - N/A   Overcast
2:55 AM 13.8 °F 1.0 °F 7.5 °F 76% 30.03 in 10.0 mi South 10.4 mph 16.1 mph N/A   Overcast
3:15 AM 14.0 °F 2.9 °F 7.5 °F 75% 30.02 in 10.0 mi SSW 8.1 mph 16.1 mph N/A   Overcast
3:35 AM 14.0 °F 2.9 °F 7.7 °F 76% 30.00 in 10.0 mi South 8.1 mph - N/A   Overcast
3:55 AM 14.5 °F 1.9 °F 7.7 °F 74% 29.99 in 10.0 mi SSW 10.4 mph - N/A   Overcast
4:15 AM 14.9 °F 3.1 °F 7.7 °F 73% 29.98 in 10.0 mi SSW 9.2 mph - N/A   Overcast
4:55 AM 15.3 °F 2.8 °F 8.2 °F 74% 29.95 in 10.0 mi SSW 10.4 mph 17.3 mph N/A   Overcast
5:15 AM 15.4 °F 4.6 °F 8.6 °F 74% 29.94 in 10.0 mi SW 8.1 mph - N/A   Overcast
5:36 AM 15.6 °F 4.0 °F 8.6 °F 74% 29.94 in 10.0 mi SW 9.2 mph 16.1 mph N/A   Overcast
5:55 AM 15.6 °F 2.5 °F 9.3 °F 76% 29.93 in 10.0 mi WSW 11.5 mph 17.3 mph N/A   Overcast
6:15 AM 15.8 °F 3.4 °F 9.7 °F 77% 29.92 in 10.0 mi WSW 10.4 mph 19.6 mph N/A   Overcast
6:35 AM 15.8 °F 5.1 °F 10.0 °F 78% 29.92 in 10.0 mi SW 8.1 mph - N/A   Overcast
6:55 AM 15.8 °F 3.4 °F 10.2 °F 79% 29.93 in 10.0 mi WSW 10.4 mph 16.1 mph N/A   Overcast
7:15 AM 16.3 °F 3.4 °F 10.6 °F 78% 29.93 in 10.0 mi WSW 11.5 mph 17.3 mph N/A   Overcast
7:36 AM 16.3 °F 2.7 °F 11.1 °F 80% 29.93 in 10.0 mi WSW 12.7 mph 16.1 mph N/A Snow Light Snow
7:55 AM 16.2 °F 3.2 °F 10.9 °F 80% 29.92 in 10.0 mi WSW 11.5 mph 16.1 mph N/A   Overcast
8:15 AM 16.5 °F 0.8 °F 10.4 °F 77% 29.93 in 10.0 mi West 17.3 mph 20.7 mph N/A   Scattered Clouds
8:35 AM 16.0 °F -2.1 °F 8.1 °F 71% 29.93 in 10.0 mi WNW 23.0 mph 28.8 mph N/A   Scattered Clouds
8:56 AM 15.4 °F -0.6 °F 7.3 °F 70% 29.95 in 10.0 mi WNW 17.3 mph 26.5 mph N/A   Scattered Clouds
9:15 AM 14.4 °F -3.4 °F 7.2 °F 73% 29.97 in 10.0 mi WNW 20.7 mph 32.2 mph N/A   Scattered Clouds
9:35 AM 13.1 °F -3.7 °F 4.5 °F 68% 29.97 in 10.0 mi West 17.3 mph 25.3 mph N/A   Clear
9:55 AM 12.2 °F -4.3 °F 3.9 °F 69% 29.99 in 10.0 mi West 16.1 mph 26.5 mph N/A   Clear
10:15 AM 12.0 °F -5.6 °F 3.2 °F 68% 30.00 in 10.0 mi West 18.4 mph 24.2 mph N/A   Scattered Clouds
10:35 AM 11.7 °F -3.8 °F 2.8 °F 68% 30.00 in 10.0 mi WNW 13.8 mph 24.2 mph N/A   Clear
10:55 AM 11.3 °F -6.5 °F 2.7 °F 68% 30.02 in 10.0 mi WNW 18.4 mph 24.2 mph N/A   Clear
11:15 AM 10.9 °F -6.5 °F 2.3 °F 68% 30.02 in 10.0 mi NW 17.3 mph 23.0 mph N/A   Clear
11:35 AM 10.9 °F -7.5 °F 2.1 °F 68% 30.03 in 10.0 mi WNW 19.6 mph 24.2 mph N/A   Clear
11:55 AM 11.1 °F -6.2 °F 2.1 °F 67% 30.04 in 10.0 mi WNW 17.3 mph 23.0 mph N/A   Clear
12:15 PM 11.1 °F -5.7 °F 1.9 °F 67% 30.04 in 10.0 mi West 16.1 mph 24.2 mph N/A   Clear
12:35 PM 11.3 °F -6.5 °F 1.9 °F 66% 30.05 in 10.0 mi WNW 18.4 mph 25.3 mph N/A   Clear
12:55 PM 12.0 °F -3.4 °F 2.5 °F 66% 30.05 in 10.0 mi WNW 13.8 mph 18.4 mph N/A   Clear
1:15 PM 11.5 °F -5.2 °F 1.9 °F 66% 30.06 in 10.0 mi WNW 16.1 mph 20.7 mph N/A   Clear
1:35 PM 11.7 °F -4.4 °F 1.6 °F 64% 30.07 in 10.0 mi WNW 15.0 mph 21.9 mph N/A   Clear
1:55 PM 11.5 °F -5.2 °F 1.6 °F 64% 30.07 in 10.0 mi WNW 16.1 mph 21.9 mph N/A   Clear
2:15 PM 11.5 °F -4.7 °F 1.8 °F 65% 30.08 in 10.0 mi NW 15.0 mph 20.7 mph N/A   Clear
2:35 PM 11.3 °F -4.3 °F 1.6 °F 65% 30.10 in 10.0 mi WNW 13.8 mph 21.9 mph N/A   Clear
2:55 PM 11.1 °F -3.9 °F 1.9 °F 67% 30.10 in 10.0 mi WNW 12.7 mph 20.7 mph N/A   Clear
3:15 PM 10.8 °F -5.0 °F 1.6 °F 67% 30.11 in 10.0 mi WNW 13.8 mph - N/A   Clear
3:55 PM 10.0 °F -5.9 °F 1.0 °F 67% 30.13 in 10.0 mi WNW 13.8 mph 20.7 mph N/A   Clear
4:15 PM 9.5 °F -5.9 °F 0.7 °F 67% 30.13 in 10.0 mi WNW 12.7 mph 17.3 mph N/A   Clear
4:55 PM 8.6 °F -6.3 °F -0.0 °F 68% 30.16 in 10.0 mi WNW 11.5 mph - N/A   Clear
5:15 PM 8.2 °F -6.0 °F -0.0 °F 69% 30.16 in 10.0 mi WNW 10.4 mph - N/A   Clear
5:35 PM 7.5 °F -5.0 °F -0.4 °F 70% 30.17 in 10.0 mi WNW 8.1 mph - N/A   Clear
5:55 PM 7.3 °F -5.2 °F -0.6 °F 70% 30.17 in 10.0 mi NW 8.1 mph - N/A   Clear
6:15 PM 6.8 °F -5.9 °F -1.1 °F 70% 30.17 in 10.0 mi NW 8.1 mph - N/A   Clear
6:35 PM 6.4 °F -8.2 °F -1.3 °F 71% 30.19 in 10.0 mi NW 10.4 mph - N/A   Clear
6:55 PM 5.9 °F -8.9 °F -2.2 °F 69% 30.20 in 10.0 mi NW 10.4 mph - N/A   Clear
7:15 PM 5.7 °F -7.2 °F -2.4 °F 69% 30.21 in 10.0 mi NW 8.1 mph - N/A   Clear
7:55 PM 5.0 °F -6.9 °F -3.1 °F 69% 30.23 in 10.0 mi WNW 6.9 mph - N/A   Clear
8:15 PM 4.6 °F -6.0 °F -2.7 °F 72% 30.23 in 10.0 mi West 5.8 mph - N/A   Clear
8:35 PM 4.5 °F -8.7 °F -3.3 °F 70% 30.25 in 10.0 mi WNW 8.1 mph - N/A   Clear
8:55 PM 3.9 °F -10.4 °F -3.3 °F 72% 30.26 in 10.0 mi WNW 9.2 mph - N/A   Clear
9:16 PM 3.2 °F -9.1 °F -3.6 °F 73% 30.26 in 10.0 mi WNW 6.9 mph - N/A   Clear
9:36 PM 2.7 °F -8.4 °F -4.0 °F 74% 30.26 in 10.0 mi WNW 5.8 mph - N/A   Clear
9:55 PM 2.1 °F -7.4 °F -4.2 °F 75% 30.25 in 10.0 mi WNW 4.6 mph - N/A   Clear
10:15 PM 1.8 °F -9.5 °F -4.4 °F 76% 30.27 in 10.0 mi WNW 5.8 mph - N/A   Clear
10:56 PM 1.8 °F -7.8 °F -4.5 °F 75% 30.28 in 10.0 mi West 4.6 mph - N/A   Clear
11:15 PM 1.0 °F -6.7 °F -4.7 °F 77% 30.28 in 10.0 mi NW 3.5 mph - N/A   Clear
11:35 PM 1.4 °F -8.3 °F -4.9 °F 75% 30.30 in 10.0 mi NW 4.6 mph - N/A   Clear
11:55 PM 1.0 °F -10.3 °F -4.9 °F 76% 30.30 in 10.0 mi NW 5.8 mph - N/A   Clear